[Iaude] MPEC V06: 2023 UV10 [a=19.46,e=0.38,i=36.5,H=10.8]
    mpec at marsden.cfa.harvard.edu 
    mpec at marsden.cfa.harvard.edu
       
    Wed Nov  1 10:21:19 EDT 2023
    
    
  
M.P.E.C. 2023-V06                              Issued 2023 November 1, 14:19 UT
     The Minor Planet Electronic Circulars contain information on unusual
         minor planets, routine data on comets and natural satellites,
         and occasional editorial announcements.  They are published
    on behalf of Division F of the International Astronomical Union by the
          Minor Planet Center, Smithsonian Astrophysical Observatory,
                          Cambridge, MA 02138, U.S.A.
			  
             Prepared using the Tamkin Foundation Computer Network
                              MPC at CFA.HARVARD.EDU
            URL https://www.minorplanetcenter.net/    ISSN 1523-6714
                                   2023 UV10                                    
Observations:
     K23U10V  C2021 10 02.40902501 57 02.176-29 15 11.72         21.48GVEV006F51
     K23U10V  C2021 10 02.41876301 57 02.037-29 15 12.53         21.67GVEV006F51
     K23U10V  C2021 10 02.42844301 57 01.916-29 15 13.37         21.53GVEV006F51
     K23U10V  C2021 10 02.43809901 57 01.761-29 15 14.12         21.42GVEV006F51
     K23U10V  C2021 10 02.52720401 57 00.487-29 15 21.98         21.38GVEV006F51
     K23U10V  C2021 10 02.52784901 57 00.471-29 15 21.99         21.43GVEV006F51
     K23U10V  C2021 10 27.36010001 50 45.503-29 35 15.47         21.82GVEV006F51
     K23U10V  C2021 10 27.37109501 50 45.342-29 35 15.44         22.08GVEV006F51
     K23U10V  C2021 10 27.38226201 50 45.164-29 35 15.49         22.30GVEV006F51
     K23U10V  C2021 10 27.39324901 50 44.985-29 35 15.58         21.89GVEV006F51
     K23U10V  C2021 11 01.33980501 49 29.551-29 35 01.69         21.53GVEV006F51
     K23U10V  C2021 11 01.35070701 49 29.376-29 35 01.62         21.47GVEV006F51
     K23U10V  C2021 11 01.36157901 49 29.215-29 35 01.38         21.69GVEV006F51
     K23U10V  C2021 11 01.37245801 49 29.051-29 35 01.38         21.84GVEV006F51
     K23U10V  C2021 11 20.30685401 45 05.866-29 20 20.62         22.29GVEV006F51
     K23U10V  C2021 11 20.31785201 45 05.721-29 20 19.67         22.36GVEV006F51
     K23U10V  C2021 11 20.32882001 45 05.582-29 20 18.89         21.51GVEV006F51
     K23U10V  C2021 11 20.33982301 45 05.461-29 20 17.88         21.57GVEV006F51
     K23U10V  C2022 08 28.62268502 34 41.968-22 16 02.20         21.58GVEV006F52
     K23U10V  C2022 09 15.59117402 32 56.569-22 53 21.87         22.54GVEV006F51
     K23U10V  C2022 09 15.60336302 32 56.477-22 53 23.49         22.04GVEV006F51
     K23U10V  C2022 09 15.61546902 32 56.373-22 53 24.91         23.02GVEV006F51
     K23U10V  C2022 09 15.62756902 32 56.288-22 53 26.16         22.43GVEV006F51
     K23U10V  C2022 09 17.51194002 32 40.034-22 57 08.49         22.55GVEV006F51
     K23U10V  C2022 09 17.52490602 32 39.935-22 57 10.14         21.59GVEV006F51
     K23U10V  C2022 09 17.54568602 32 39.712-22 57 12.22         21.96GVEV006F51
     K23U10V  C2022 09 17.55865302 32 39.614-22 57 14.16         22.11GVEV006F51
     K23U10V  C2022 10 02.56738502 29 59.655-23 23 48.20         22.05GVEV006F51
     K23U10V  C2022 10 02.57907402 29 59.497-23 23 49.47         22.13GVEV006F51
     K23U10V  C2022 10 02.59070902 29 59.365-23 23 50.19         22.49GVEV006F51
     K23U10V  C2022 10 02.60246402 29 59.216-23 23 51.49         22.24GVEV006F51
     K23U10V  C2022 10 14.43340902 27 23.110-23 39 36.17         21.20GVEV006F52
     K23U10V  C2022 10 14.44418102 27 22.943-23 39 36.83         22.47GVEV006F52
     K23U10V  C2022 10 14.45494702 27 22.811-23 39 38.08         22.29GVEV006F52
     K23U10V  C2022 10 14.46572502 27 22.651-23 39 38.60         21.89GVEV006F52
     K23U10V  C2022 10 16.42137102 26 55.057-23 41 41.78         22.06GVEV006F52
     K23U10V  C2022 10 16.43093802 26 54.911-23 41 42.32         21.78GVEV006F52
     K23U10V  C2022 10 16.44048302 26 54.773-23 41 42.89         21.77GVEV006F52
     K23U10V  C2022 10 16.45003902 26 54.629-23 41 43.46         21.98GVEV006F52
     K23U10V  C2022 10 20.44822102 25 57.050-23 45 22.73         22.23GVEV006F52
     K23U10V  C2022 10 20.45916102 25 56.872-23 45 23.03         22.03GVEV006F52
     K23U10V  C2022 10 20.47003902 25 56.711-23 45 23.43         21.81GVEV006F52
     K23U10V  C2022 10 20.48100702 25 56.546-23 45 24.15         21.99GVEV006F52
     K23U10V  C2022 10 31.46245302 23 13.688-23 51 22.40         22.49GVEV006F52
     K23U10V  C2022 10 31.46308202 23 13.678-23 51 22.21         22.37GVEV006F52
     K23U10V  C2022 11 03.35690402 22 30.563-23 51 53.23         21.76GVEV006F52
     K23U10V  C2022 11 03.36968702 22 30.369-23 51 53.74         21.36GVEV006F52
     K23U10V  C2022 11 03.38249502 22 30.173-23 51 53.73         21.82GVEV006F52
     K23U10V  C2022 11 03.39529502 22 29.970-23 51 53.62         21.59GVEV006F52
     K23U10V  C2022 11 12.37069302 20 18.521-23 50 36.13         22.49GVEV006F51
     K23U10V  C2022 11 12.38160702 20 18.357-23 50 36.19         22.14GVEV006F51
     K23U10V  C2022 11 12.39252902 20 18.158-23 50 35.37         21.98GVEV006F51
     K23U10V  C2022 11 12.40542502 20 18.006-23 50 35.32         21.79GVEV006F51
     K23U10V  C2022 11 19.35720602 18 40.972-23 46 30.74         21.53GVEV006F52
     K23U10V  C2022 11 19.36731802 18 40.834-23 46 30.50         21.49GVEV006F52
     K23U10V  C2022 11 19.37742902 18 40.696-23 46 30.05         21.53GVEV006F52
     K23U10V  C2022 11 19.38756102 18 40.542-23 46 29.39         21.44GVEV006F52
     K23U10V  C2022 11 19.48032002 18 39.272-23 46 25.57         21.59GVEV006F52
     K23U10V  C2023 09 11.60265103 01 06.324-17 01 03.13         21.93GVEV006F51
     K23U10V  C2023 09 11.60884603 01 06.279-17 01 03.87         21.86GVEV006F51
     K23U10V  C2023 09 11.61482703 01 06.242-17 01 04.31         21.71GVEV006F51
     K23U10V  C2023 09 11.62084403 01 06.217-17 01 04.80         21.51GVEV006F51
     K23U10V  C2023 09 18.54905303 00 22.935-17 13 26.67         21.59GVEV006F51
     K23U10V  C2023 09 18.55935703 00 22.842-17 13 27.62         21.34GVEV006F51
     K23U10V  C2023 09 18.56964403 00 22.772-17 13 28.74         22.28GVEV006F51
     K23U10V  C2023 09 18.57992803 00 22.699-17 13 29.86         22.12GVEV006F51
     K23U10V  C2023 09 18.62470903 00 22.387-17 13 34.55         22.72GVEV006F51
     K23U10V  C2023 09 25.51219502 59 26.802-17 25 20.95         23.26GVEV006F51
     K23U10V  C2023 09 25.52339602 59 26.685-17 25 22.02         22.17GVEV006F51
     K23U10V  C2023 09 25.53459702 59 26.610-17 25 23.20         21.92GVEV006F51
     K23U10V  C2023 10 09.48401002 57 00.952-17 46 27.39         21.75GVEV006F51
     K23U10V  C2023 10 09.50605702 57 00.677-17 46 28.89         21.89GVEV006F51
     K23U10V  C2023 10 09.51698802 57 00.549-17 46 29.92         21.89GVEV006F51
     K23U10V* C2023 10 19.45062502 54 55.188-17 58 11.07         22.28wXEV006F51
     K23U10V  C2023 10 19.46289502 54 55.007-17 58 11.64         22.21wXEV006F51
     K23U10V  C2023 10 19.48741702 54 54.669-17 58 13.04         22.04wXEV006F51
     K23U10V KC2023 11 01.37173 02 51 55.56 -18 07 49.0          21.5 RVEV006291
     K23U10V KC2023 11 01.40340 02 51 55.12 -18 07 50.8          21.4 RVEV006291
Observer details:
291 LPL/Spacewatch II.  Observer T. H. Bressi.  1.8-m f/2.7 reflector + CCD.
F51 Pan-STARRS 1, Haleakala.  Observers J. Bulger, T. Lowe, P. Minguez, A.
    Schultz, I. Smith.  Measurers K. Chambers, T. de Boer, J. Fairlamb, H.
    Gao, M. Huber, C.-C. Lin, E. Magnier, Y. Ramanjooloo, R. Wainscoat, R.
    Weryk.  1.8-m Ritchey-Chretien + CCD.
F52 Pan-STARRS 2, Haleakala.  Observers J. Bulger, T. Lowe, P. Minguez, A.
    Schultz, I. Smith.  Measurers K. Chambers, T. de Boer, J. Fairlamb, H.
    Gao, M. Huber, C.-C. Lin, E. Magnier, Y. Ramanjooloo, R. Wainscoat, R.
    Weryk.  1.8-m Ritchey-Chretien + CCD.
Orbital elements:
2023 UV10                                                                       
Epoch 2023 Sept. 13.0 TT = JDT 2460200.5                Veres                   
M  23.69860              (2000.0)            P               Q                  
n   0.01148480     Peri.  247.07728     +0.72314165     +0.35168851             
a  19.4560130      Node    87.57795     -0.16774858     +0.92431866             
e   0.3821495      Incl.   36.51195     -0.67001982     +0.14815601             
P  85.8            H   10.85          G   0.15           U   3                  
Residuals in seconds of arc
211002 F51  0.1-  0.1-    220917 F51  0.1+  0.1-    221112 F51  0.0   0.0
211002 F51  0.1-  0.0     221002 F51  0.1+  0.0     221119 F52  0.0   0.1+
211002 F51  0.2+  0.0     221002 F51  0.1-  0.2-    221119 F52  0.1+  0.1-
211002 F51  0.1-  0.1+    221002 F51  0.1+  0.1+    221119 F52  0.1+  0.1-
211002 F51  0.0   0.1-    221002 F51  0.1+  0.1-    221119 F52  0.1-  0.0
211002 F51  0.1-  0.0     221014 F52  0.1-  0.4+    221119 F52  0.0   0.6-
211027 F51  0.0   0.1-    221014 F52  0.3-  0.4+    230911 F51  0.1+  0.2-
211027 F51  0.1+  0.0     221014 F52  0.0   0.1-    230911 F51  0.1-  0.3-
211027 F51  0.1+  0.0     221014 F52  0.0   0.1+    230911 F51  0.1-  0.1-
211027 F51  0.0   0.0     221016 F52  0.1+  0.1-    230911 F51  0.0   0.1+
211101 F51  0.0   0.0     221016 F52  0.0   0.0     230918 F51  0.1+  0.1-
211101 F51  0.1-  0.0     221016 F52  0.0   0.0     230918 F51  0.1-  0.1+
211101 F51  0.0   0.1+    221016 F52  0.1-  0.0     230918 F51  0.0   0.1+
211101 F51  0.1+  0.0     221020 F52  0.4+  0.3-    230918 F51  0.0   0.0
211120 F51  0.0   0.1-    221020 F52  0.2+  0.1-    230918 F51  0.4+  0.0
211120 F51  0.1-  0.0     221020 F52  0.2+  0.1+    230925 F51  0.0   0.0
211120 F51  0.1-  0.2-    221020 F52  0.1+  0.1-    230925 F51  0.2-  0.1+
211120 F51  0.1+  0.0     221031 F52  0.0   0.3-    230925 F51  0.2+  0.0
220828 F52  0.2-  0.0     221031 F52  0.0   0.1-    231009 F51  0.1+  0.1-
220915 F51  0.3-  0.1+    221103 F52  0.1-  0.3+    231009 F51  0.0   0.2+
220915 F51  0.1-  0.1-    221103 F52  0.1-  0.1-    231009 F51  0.0   0.0
220915 F51  0.1-  0.1-    221103 F52  0.1-  0.0     231019 F51  0.2+  0.1-
220915 F51  0.2+  0.1+    221103 F52  0.2-  0.2+    231019 F51  0.0   0.0
220917 F51  0.1-  0.1+    221112 F51  0.1+  0.1+    231019 F51  0.1-  0.1+
220917 F51  0.2+  0.0     221112 F51  0.0   0.3-    231101 291  0.1-  0.9+
220917 F51  0.2-  0.3+    221112 F51  0.5-  0.3+    231101 291  0.2+  0.1-
Ephemeris:
2023 UV10                a,e,i = 19.46, 0.38, 37                 q = 12.0209
Date    TT    R. A. (2000) Decl.     Delta      r    Elong.  Phase     V
2023 10 02    02 58 24.2 -17 35 42  12.7687 13.5285   137.9     2.8    22.3
...
2023 10 17    02 55 27.4 -17 55 36  12.7185 13.5480   145.1     2.4    22.3
...
2023 10 25    02 53 39.7 -18 03 09  12.7147 13.5584   146.9     2.3    22.3
...
2023 10 31    02 52 15.2 -18 07 08  12.7228 13.5662   147.0     2.3    22.3
2023 11 01    02 52 00.9 -18 07 39  12.7251 13.5675   146.9     2.3    22.3
2023 11 02    02 51 46.6 -18 08 07  12.7276 13.5688   146.8     2.3    22.3
...
2023 11 08    02 50 20.2 -18 09 58  12.7483 13.5766   145.5     2.4    22.3
...
2023 11 16    02 48 25.8 -18 09 48  12.7904 13.5871   142.4     2.5    22.3
...
2023 12 01    02 45 04.6 -18 00 58  12.9116 13.6068   133.3     3.0    22.4
M. P. C. Staff               (C) Copyright 2023 MPC           M.P.E.C. 2023-V06
    
    
More information about the Iaude
mailing list